Location: Deurze
(52.9838°N, 6.6090°E)
Time: 19:06:12
(UTC+00:00)

Cosmos 2263 Rocket - Pass Details

Date: 11 March 2026
Orbit: 823 x 846 km, 71.0° (Epoch: 20 April)

Event Time Altitude Azimuth Distance (km) Brightness Sun altitude
Rises 17:56:30 0° 294° (WNW) 3,412 6.8 -4.7°
Reaches altitude 10° 18:00:27 10° 321° (NW) 2,475 5.3 -5.3°
Maximum altitude 18:03:06 13° 350° (N) 2,247 4.6 -5.7°
Drops below altitude 10° 18:05:45 10° 18° (NNE) 2,470 4.5 -6.1°
Sets 18:09:42 0° 45° (NE) 3,401 4.9 -6.7°
